This is the latest recevied weather packets stored in our database for station/object KF5JED-13. If no packets are shown the sender has not sent any weather packets the latest 1 day(s).
| Time | Temp. | Humidity | Pressure | Rain* | Wind** | Luminosity | Snow |
|---|---|---|---|---|---|---|---|
| 1777998360 | 13.89° C | 51% | 1011.2 hPa | 0 mm | 6.71 m/s, 30° | 638 W/m² | - |
| 1777998058 | 13.89° C | 50% | 1011.1 hPa | 0 mm | 6.26 m/s, 13° | 519 W/m² | - |
| 1777997754 | 14.44° C | 49% | 1011.2 hPa | 0 mm | 4.92 m/s, 16° | 690 W/m² | - |
| 1777997452 | 14.44° C | 49% | 1010.9 hPa | 0 mm | 4.02 m/s, 17° | 572 W/m² | - |
| 1777997150 | 14.44° C | 47% | 1011 hPa | 0 mm | 6.71 m/s, 17° | 480 W/m² | - |
| 1777996847 | 14.44° C | 48% | 1010.7 hPa | 0 mm | 4.92 m/s, 14° | 497 W/m² | - |
| 1777996543 | 13.89° C | 49% | 1010.7 hPa | 0 mm | 5.36 m/s, 12° | 531 W/m² | - |
| 1777996239 | 13.89° C | 50% | 1010.8 hPa | 0 mm | 6.26 m/s, 25° | 341 W/m² | - |
| 1777995936 | 13.89° C | 49% | 1010.6 hPa | 0 mm | 5.36 m/s, 30° | 333 W/m² | - |
| 1777995632 | 13.89° C | 48% | 1010.3 hPa | 0 mm | 6.71 m/s, 4° | 635 W/m² | - |
| 1777995330 | 13.89° C | 48% | 1010.4 hPa | 0 mm | 7.6 m/s, 6° | 426 W/m² | - |
| 1777995026 | 13.89° C | 48% | 1010.4 hPa | 0 mm | 5.81 m/s, 11° | 550 W/m² | - |
| 1777994723 | 13.33° C | 49% | 1010.3 hPa | 0 mm | 8.05 m/s, 7° | 355 W/m² | - |
| 1777994419 | 13.33° C | 49% | 1010.1 hPa | 0 mm | 7.15 m/s, 14° | 336 W/m² | - |
| 1777994114 | 13.33° C | 49% | 1010 hPa | 0 mm | 8.05 m/s, 34° | 310 W/m² | - |
| 1777993812 | 13.89° C | 47% | 1010.1 hPa | 0 mm | 6.26 m/s, 352° | 392 W/m² | - |
| 1777993508 | 12.78° C | 49% | 1010.2 hPa | 0 mm | 4.92 m/s, 21° | 303 W/m² | - |
| 1777993204 | 13.33° C | 49% | 1009.9 hPa | 0 mm | 6.71 m/s, 26° | 368 W/m² | - |
| 1777992901 | 12.78° C | 48% | 1009.8 hPa | 0 mm | 4.02 m/s, 14° | 239 W/m² | - |
| 1777992599 | 12.78° C | 49% | 1010 hPa | 0 mm | 3.58 m/s, 26° | 252 W/m² | - |
| 1777992296 | 12.78° C | 49% | 1010.1 hPa | 0 mm | 6.26 m/s, 359° | 257 W/m² | - |
| 1777991993 | 13.33° C | 48% | 1009.9 hPa | 0 mm | 6.26 m/s, 12° | 296 W/m² | - |
| 1777991691 | 12.78° C | 48% | 1010.1 hPa | 0 mm | 6.26 m/s, 356° | 326 W/m² | - |
| 1777991388 | 12.78° C | 49% | 1010.2 hPa | 0 mm | 6.26 m/s, 9° | 201 W/m² | - |
| 1777991085 | 12.78° C | 49% | 1009.9 hPa | 0 mm | 7.6 m/s, 12° | 322 W/m² | - |
* Rain latest hour (hover to see other rain measurements)
** Current wind speed in m/s (hover to see current wind gust speed)